Wind_Speed
40 40 42 43 43 44 45 46 46 47 47 47 48 49 50 50 49 49 49 49 48 47 46 45 44 43 42 40 39 38 37 35 32 30 30 30 30 29
39 40 41 42 43 44 45 46 47 47 47 47 48 49 50 50 49 48 49 49 48 47 46 45 43 41 40 39 37 36 35 34 32 30 30 31 30 30
39 40 42 42 44 45 45 46 46 47 47 46 47 48 48 48 48 48 47 46 46 46 45 44 43 41 39 37 36 35 34 33 31 30 30 30 30 29
37 39 40 41 43 43 44 45 46 46 46 46 46 46 47 46 46 46 45 43 43 44 43 42 41 40 38 35 35 34 34 32 31 30 30 30 29 29
35 36 38 40 41 42 43 43 44 45 46 46 46 46 46 44 44 44 44 43 42 42 42 41 40 38 37 36 34 34 33 32 31 30 30 30 30 30
34 36 37 38 40 41 41 42 43 44 45 45 45 45 44 43 43 42 42 42 41 40 39 38 36 35 35 35 34 34 32 32 31 30 30 31 31 30
35 37 38 38 39 39 40 41 43 43 43 43 44 44 43 43 43 42 42 41 40 39 37 36 35 34 34 33 32 31 31 30 30 29 29 30 31 30
36 37 38 39 39 41 41 42 42 42 42 43 43 42 42 41 41 41 40 38 38 37 36 35 33 33 32 31 30 30 29 29 29 29 29 29 29 29
36 37 38 39 40 40 40 41 41 41 42 42 42 40 39 39 39 38 37 38 36 34 33 32 31 30 30 28 28 27 27 27 28 28 28 27 27 27
36 37 38 38 39 39 39 39 39 39 40 40 39 39 38 37 37 36 36 35 33 31 29 28 27 26 28 28 26 25 25 26 27 27 27 26 26 26
37 38 37 36 36 37 37 37 38 38 38 38 38 37 37 37 37 35 34 34 31 29 27 27 26 26 26 27 27 25 24 25 26 26 25 25 26 27
36 36 35 34 34 35 36 37 38 38 38 39 38 37 37 37 36 35 33 31 30 28 26 25 25 25 25 24 24 24 24 23 23 24 24 25 26 27
36 36 35 35 35 35 36 37 37 38 38 39 38 37 37 36 35 34 32 30 28 27 26 25 24 24 23 23 23 24 24 23 24 24 24 25 26 27
36 36 37 37 37 36 37 37 37 37 37 37 36 36 35 34 34 33 31 29 28 27 26 25 24 23 22 22 22 23 24 24 24 24 24 24 25 26
36 37 37 37 37 37 37 36 36 37 36 35 35 34 34 34 33 31 30 28 27 26 25 24 23 22 22 22 22 24 25 25 25 25 24 24 25 27
37 37 37 37 37 36 36 36 36 35 35 35 35 34 33 32 31 29 29 28 27 26 25 25 24 23 22 22 23 24 25 26 26 25 25 25 25 27
37 37 36 36 36 36 36 35 36 35 35 34 34 33 32 31 30 29 28 27 27 26 26 25 26 25 25 24 24 25 25 26 26 26 26 26 26 27
37 36 36 35 35 35 35 35 35 35 34 34 33 32 31 30 29 28 27 26 26 26 26 26 25 25 25 26 25 25 25 26 27 27 27 26 27 27
36 36 35 35 35 35 35 35 34 34 33 32 32 31 30 29 28 27 27 26 25 25 25 26 25 25 25 25 26 26 25 25 26 27 27 27 28 29
36 35 35 35 35 35 36 36 35 34 33 32 30 29 29 28 28 27 26 26 25 25 25 25 25 25 25 25 25 26 26 26 26 26 26 27 28 29
36 35 35 35 35 36 36 36 35 34 33 31 30 29 28 27 27 27 26 25 25 25 25 26 26 26 26 25 25 26 26 26 26 26 27 28 29 29
37 37 36 36 36 36 36 35 34 33 32 31 30 29 28 28 27 26 25 25 25 25 25 25 26 26 25 25 25 26 26 26 26 26 27 28 29 30
38 38 38 37 37 37 36 35 34 33 32 31 30 30 29 28 27 26 24 24 24 24 24 25 25 25 25 25 25 26 27 26 26 27 28 28 29 29
Wind_Direction
272 274 274 276 277 280 283 284 284 285 286 287 287 288 289 288 289 288 288 288 286 286 286 286 285 282 279 275 274 273 270 268 267 261 260 259 254 251
272 275 277 278 279 282 284 285 286 288 288 287 288 289 289 289 288 288 288 287 285 284 285 285 284 280 276 275 273 271 269 265 261 258 257 256 254 252
274 276 279 279 280 282 283 286 288 289 289 289 290 290 290 291 289 289 289 287 286 284 285 284 281 278 274 273 270 267 265 261 259 257 256 255 252 251
279 279 280 280 282 283 285 287 288 289 289 290 291 291 290 291 291 290 289 287 287 285 284 282 280 277 273 269 267 265 261 257 256 253 253 252 251 248
284 284 283 282 284 285 285 288 289 289 289 290 291 291 290 292 291 290 290 289 289 288 285 282 278 274 271 269 266 263 258 255 253 252 250 248 248 247
288 288 287 286 287 286 286 289 290 290 289 289 291 292 291 291 291 290 289 289 290 290 285 282 277 271 270 269 266 262 257 252 251 250 249 250 248 246
290 291 290 289 289 288 287 289 291 291 290 291 292 293 292 291 291 291 290 290 289 288 285 280 276 271 269 266 262 260 257 252 249 249 249 249 247 246
293 293 292 291 289 289 290 290 291 291 291 292 293 293 294 294 294 293 293 293 291 288 284 280 274 268 265 261 259 258 257 253 250 249 250 248 245 246
294 294 293 292 291 289 289 290 291 291 291 292 291 291 292 293 293 293 292 293 293 291 285 281 274 267 263 258 254 254 252 250 249 249 249 246 246 245
297 297 298 296 295 292 290 290 291 292 293 293 292 291 291 292 293 293 292 292 290 288 285 280 274 267 262 258 255 253 249 248 250 250 248 244 243 241
300 301 300 300 298 296 293 291 292 293 294 294 294 292 291 291 292 292 292 290 286 285 283 279 274 269 263 260 256 254 251 249 249 246 244 242 241 238
303 303 301 300 301 300 297 294 294 294 294 295 294 292 292 292 292 292 291 287 285 283 280 279 275 270 264 259 255 251 246 246 245 242 241 239 236 236
304 303 301 302 301 301 300 299 297 296 296 295 294 291 291 291 291 289 288 286 282 279 278 277 273 268 263 256 250 248 245 244 244 242 239 236 236 236
304 305 303 303 302 300 299 299 298 298 297 296 294 291 290 289 289 286 285 284 279 274 273 272 270 264 259 254 247 245 243 243 244 242 239 238 237 236
304 304 303 303 303 302 300 300 299 299 298 297 296 293 290 290 289 285 282 281 276 269 268 268 267 262 256 251 247 244 242 242 242 241 241 240 236 233
303 304 304 304 303 302 302 301 300 300 300 298 296 294 290 288 287 283 280 279 275 267 265 264 260 257 253 250 246 241 239 238 238 238 239 236 233 231
303 304 305 305 304 303 303 302 301 301 300 298 297 294 291 288 286 281 278 277 274 267 264 263 258 254 251 249 247 243 239 237 237 238 236 234 232 230
304 304 304 305 306 304 304 304 303 303 302 300 297 293 290 288 285 281 278 277 274 266 262 259 256 254 251 247 244 243 240 237 237 237 235 235 234 231
304 303 303 303 304 304 305 304 304 304 303 301 298 293 290 287 283 280 278 276 273 265 260 258 257 254 249 245 243 241 241 240 239 236 234 234 233 231
305 304 304 305 305 305 305 305 303 303 301 299 297 293 290 286 281 278 277 275 270 264 260 257 254 253 249 246 244 241 241 241 241 238 237 235 233 231
304 304 304 304 304 305 305 305 303 302 301 299 296 292 289 285 281 278 277 273 268 263 258 254 252 252 249 247 245 242 241 239 239 238 237 234 232 230
302 302 302 303 303 303 303 303 303 301 300 299 296 292 288 285 282 278 276 273 268 262 257 253 251 252 249 246 245 243 241 240 238 236 235 233 230 229
300 300 301 301 301 301 301 300 299 299 297 297 295 292 288 287 283 279 274 271 266 260 256 252 250 248 246 245 245 243 241 240 239 237 235 233 231 231
Height
5702 5702 5702 5701 5700 5699 5697 5695 5694 5692 5691 5688 5685 5681 5676 5672 5667 5663 5660 5656 5652 5649 5647 5643 5640 5638 5636 5636 5637 5637 5638 5638 5640 5642 5644 5647 5650 5654
5692 5691 5690 5689 5688 5687 5685 5683 5680 5678 5676 5675 5671 5667 5662 5658 5654 5650 5646 5643 5640 5637 5634 5631 5628 5626 5625 5625 5625 5626 5627 5628 5630 5633 5636 5638 5642 5645
5681 5680 5679 5678 5676 5675 5673 5670 5667 5664 5661 5660 5656 5653 5648 5645 5641 5637 5633 5629 5626 5624 5621 5618 5616 5615 5614 5613 5614 5615 5616 5618 5621 5623 5627 5630 5633 5637
5669 5668 5667 5666 5664 5662 5660 5657 5654 5650 5647 5645 5643 5639 5635 5632 5628 5623 5620 5616 5613 5610 5608 5605 5604 5603 5602 5602 5603 5604 5606 5609 5612 5615 5618 5622 5625 5628
5658 5657 5656 5654 5652 5650 5647 5644 5641 5637 5634 5631 5629 5625 5622 5619 5615 5610 5607 5603 5600 5597 5594 5593 5592 5591 5591 5592 5593 5594 5597 5599 5603 5606 5609 5613 5616 5619
5648 5646 5644 5642 5640 5637 5635 5632 5629 5625 5622 5619 5615 5612 5609 5605 5601 5598 5594 5592 5588 5585 5582 5581 5580 5581 5581 5582 5583 5585 5587 5590 5593 5597 5600 5604 5608 5611
5638 5636 5633 5631 5628 5625 5623 5620 5617 5613 5610 5607 5603 5600 5597 5593 5590 5586 5583 5580 5577 5574 5571 5570 5570 5571 5571 5572 5573 5575 5578 5581 5584 5588 5591 5595 5598 5602
5628 5625 5622 5620 5617 5614 5611 5608 5605 5601 5598 5595 5592 5589 5586 5582 5578 5575 5571 5569 5567 5565 5560 5560 5559 5559 5561 5562 5564 5567 5569 5572 5576 5579 5582 5586 5589 5593
5618 5615 5612 5609 5605 5602 5599 5596 5593 5589 5587 5584 5580 5577 5575 5571 5568 5565 5561 5558 5555 5553 5550 5549 5549 5549 5550 5553 5555 5558 5561 5564 5567 5571 5574 5577 5581 5584
5608 5605 5601 5597 5594 5591 5588 5585 5582 5579 5576 5573 5570 5567 5564 5560 5557 5554 5551 5548 5545 5543 5541 5540 5540 5541 5542 5545 5547 5550 5553 5556 5559 5563 5566 5570 5573 5577
5599 5595 5591 5588 5584 5580 5578 5575 5572 5569 5566 5562 5558 5556 5553 5550 5546 5543 5541 5538 5537 5535 5534 5533 5534 5534 5535 5537 5539 5542 5545 5548 5552 5555 5558 5562 5566 5569
5590 5586 5582 5578 5574 5570 5567 5564 5562 5559 5556 5552 5548 5545 5542 5539 5536 5533 5531 5529 5528 5528 5527 5527 5526 5527 5529 5531 5533 5536 5539 5542 5545 5548 5551 5555 5559 5563
5581 5577 5573 5569 5565 5561 5558 5554 5551 5548 5544 5541 5538 5534 5532 5529 5527 5524 5522 5521 5520 5520 5520 5519 5519 5520 5522 5524 5527 5530 5533 5536 5539 5542 5545 5549 5552 5556
5571 5568 5564 5560 5555 5552 5548 5544 5540 5537 5533 5530 5527 5524 5522 5520 5517 5516 5514 5513 5512 5512 5513 5512 5513 5514 5516 5518 5520 5523 5526 5529 5532 5536 5539 5543 5546 5550
5561 5558 5554 5550 5545 5541 5537 5534 5530 5526 5523 5520 5516 5514 5512 5510 5508 5507 5505 5505 5504 5504 5505 5505 5507 5508 5509 5512 5514 5517 5520 5523 5526 5529 5533 5536 5540 5543
5552 5548 5544 5540 5535 5531 5527 5523 5519 5516 5512 5509 5506 5504 5502 5500 5499 5498 5497 5496 5496 5497 5497 5498 5500 5501 5503 5505 5508 5510 5513 5516 5520 5523 5526 5530 5533 5537
5542 5538 5534 5530 5526 5521 5517 5513 5509 5506 5502 5499 5496 5494 5492 5491 5490 5489 5488 5488 5488 5489 5490 5491 5493 5494 5496 5498 5501 5504 5506 5510 5513 5517 5520 5523 5527 5530
5532 5528 5524 5520 5516 5512 5508 5504 5500 5496 5492 5489 5486 5484 5483 5482 5481 5480 5480 5480 5481 5481 5483 5484 5485 5487 5489 5491 5494 5497 5500 5503 5506 5510 5513 5517 5520 5524
5522 5518 5514 5511 5507 5503 5499 5495 5491 5487 5483 5480 5477 5475 5474 5473 5473 5472 5472 5472 5472 5473 5474 5476 5478 5480 5482 5484 5487 5490 5493 5496 5499 5503 5506 5510 5514 5517
5512 5509 5505 5501 5497 5494 5490 5486 5482 5478 5475 5472 5469 5467 5466 5465 5465 5464 5464 5464 5464 5465 5467 5468 5470 5472 5475 5478 5480 5483 5486 5489 5493 5496 5499 5502 5506 5510
5503 5499 5495 5491 5488 5484 5480 5477 5473 5469 5466 5463 5461 5459 5458 5457 5456 5456 5456 5456 5456 5457 5458 5460 5463 5465 5467 5470 5473 5475 5479 5482 5485 5488 5491 5495 5498 5502
5492 5489 5485 5481 5478 5474 5471 5467 5464 5461 5458 5455 5453 5451 5450 5449 5448 5448 5447 5447 5448 5449 5450 5452 5454 5457 5459 5462 5465 5468 5471 5473 5476 5480 5483 5487 5490 5495
5482 5478 5475 5471 5467 5464 5460 5457 5454 5452 5449 5446 5444 5442 5441 5440 5439 5439 5439 5439 5439 5441 5442 5444 5446 5449 5451 5454 5457 5460 5463 5465 5468 5472 5475 5479 5483 5486